Temp
32 31 30 34 35 36 36 35 33 33 34 33 32 32 32 33 33 32 31 31 30 30 30 31 31 31 30 28 28 27 27 26 26 25 25 25 26 26 27 26 26 26 26 27
31 30 34 36 36 36 35 34 34 34 34 32 34 34 33 33 34 32 32 31 31 31 30 30 31 31 29 28 28 28 27 26 25 25 25 25 26 26 27 27 27 26 26 26
31 34 37 36 35 34 33 34 33 33 34 34 34 32 33 34 34 34 33 32 32 32 30 29 29 30 29 27 28 27 27 26 25 25 25 25 26 26 26 26 26 26 26 26
32 35 35 35 35 35 32 34 34 34 31 30 33 28 31 32 33 34 32 31 32 32 31 30 29 29 29 27 27 27 27 26 25 25 25 25 25 25 26 27 26 26 26 26
33 32 34 34 34 34 33 33 32 33 30 30 30 29 31 33 29 31 29 27 25 24 24 23 29 29 29 28 26 27 26 26 25 25 25 25 25 26 27 27 26 26 26 26
34 34 34 33 34 34 34 33 31 31 28 26 29 29 28 32 30 27 28 25 26 24 23 22 23 27 29 28 27 26 26 26 25 25 25 25 25 26 26 26 27 26 26 26
33 33 33 34 33 33 33 30 25 26 27 26 30 30 31 31 30 30 29 28 27 25 22 19 20 24 28 25 27 26 26 25 25 25 25 25 25 26 26 26 27 26 25 25
30 29 32 33 32 32 31 30 25 28 27 28 30 29 30 33 33 31 30 29 29 26 23 24 23 24 24 23 23 27 25 25 25 25 26 26 26 25 26 26 26 26 26 26
27 30 33 33 33 31 30 27 30 28 29 28 30 31 29 30 31 32 31 30 29 29 29 29 27 25 24 25 24 25 23 25 24 25 25 25 26 26 26 25 26 26 26 27
30 28 31 32 33 32 32 31 26 24 27 29 29 30 28 29 29 30 29 27 27 28 27 27 28 28 28 28 26 25 25 24 25 25 24 24 26 26 26 26 26 26 27 27
30 28 29 32 30 30 29 28 28 25 26 26 25 27 28 27 28 28 27 27 27 27 26 26 27 28 26 26 25 25 24 23 23 23 25 25 24 25 25 25 26 26 27 27
27 27 25 29 32 32 31 30 28 23 25 25 25 26 28 27 28 28 27 27 27 26 26 25 26 25 24 24 24 23 24 24 23 23 23 25 25 24 24 25 25 26 26 27
26 24 23 27 29 28 30 31 31 27 25 25 24 26 29 28 26 25 25 25 25 25 25 24 23 23 24 24 23 24 22 22 23 22 23 24 25 24 24 24 24 25 26 26
26 25 25 23 27 27 27 28 28 27 24 25 26 29 27 27 25 25 24 23 23 23 23 23 22 22 24 24 23 23 23 22 22 22 21 22 24 25 25 25 24 24 25 25
26 24 26 25 27 27 27 28 28 27 27 26 26 24 22 23 23 23 23 23 23 23 23 21 21 21 23 23 23 23 23 22 21 21 21 21 21 23 25 26 26 25 24 25
26 23 26 25 27 27 27 28 28 28 28 27 26 23 23 23 23 23 22 22 22 22 22 21 21 22 22 23 23 23 22 22 21 20 20 21 21 21 23 24 26 26 25 25
24 22 22 23 24 25 24 27 27 27 25 24 21 22 22 22 22 21 21 21 21 21 21 21 20 21 22 22 23 22 22 21 21 20 20 20 21 21 21 23 25 26 26 25
23 23 22 21 22 22 24 25 26 26 25 23 22 22 21 21 20 21 20 19 19 20 20 20 21 22 23 23 22 21 20 20 20 20 19 20 20 21 21 22 24 24 25 23
25 23 21 21 21 24 25 24 24 23 21 22 21 21 21 20 20 19 19 18 18 18 19 20 21 21 21 23 22 20 19 19 19 19 19 19 19 19 21 21 22 24 24 25
24 22 20 21 21 22 22 24 25 24 19 21 20 19 18 18 16 16 17 17 17 18 19 19 19 20 21 20 20 18 18 18 18 18 17 17 16 17 19 20 21 22 24 24
22 22 21 20 21 22 23 24 25 21 18 18 18 17 16 15 14 14 14 14 15 14 14 15 17 17 17 14 15 14 14 15 15 15 15 15 15 15 18 19 20 21 23 24
23 21 21 21 21 21 23 24 22 18 17 17 16 15 13 13 13 12 12 10 11 11 11 11 12 12 12 11 11 10 11 11 11 12 13 13 13 14 17 18 20 20 21 22
22 21 20 21 20 20 19 19 18 17 16 15 14 12 11 11 10 10 10 9 9 9 9 9 10 11 10 9 9 8 9 9 9 11 12 12 12 14 16 19 19 20 20 21
25 23 20 21 20 20 20 18 17 16 15 14 12 11 10 9 9 9 8 8 8 8 8 8 8 9 9 8 8 8 8 8 9 10 11 11 13 15 18 19 20 20 20 20
22 22 22 20 16 16 17 17 18 15 14 13 12 11 10 9 9 8 8 8 8 8 7 7 7 8 8 8 8 8 8 8 9 10 11 12 14 17 17 18 18 19 19 19
22 21 19 19 17 16 17 17 16 14 13 12 11 10 10 9 8 8 8 8 8 8 8 8 7 8 7 8 8 9 8 9 10 12 13 14 16 15 15 14 16 17 17 18
Height
751 771 780 755 743 745 750 759 770 766 754 765 767 767 763 756 761 768 770 772 775 777 779 785 791 796 801 805 810 814 817 821 825 828 832 836 838 841 843 845 846 848 851 853
766 778 749 735 739 748 753 762 766 759 753 764 760 760 753 752 753 755 760 766 769 773 776 783 789 795 800 804 807 812 815 819 822 826 830 833 837 839 841 843 843 846 848 851
775 758 735 742 753 762 765 769 770 771 757 753 757 772 761 750 748 750 751 755 760 766 775 781 787 793 799 803 806 809 814 818 821 824 828 832 835 836 838 839 841 843 845 847
760 740 747 754 760 758 785 757 759 765 780 804 759 816 767 755 755 747 752 758 760 762 768 776 783 790 796 801 806 810 813 817 820 824 826 828 830 832 833 835 836 839 842 843
763 760 756 762 763 754 771 759 767 768 784 788 781 800 768 746 770 757 762 768 777 775 784 796 795 790 792 799 803 808 812 816 819 821 823 826 828 830 831 832 833 834 837 840
754 741 750 759 754 753 752 765 772 774 792 828 787 794 788 760 762 772 769 776 775 776 778 790 803 803 803 802 802 806 809 811 815 818 820 821 824 826 828 830 831 831 832 834
758 760 753 751 768 758 763 788 831 830 829 830 773 787 777 753 756 759 765 766 772 778 788 797 799 793 798 810 811 806 806 809 808 810 813 815 818 821 823 825 827 827 828 830
789 803 766 756 769 778 778 786 831 837 835 814 766 798 786 746 743 750 759 767 773 784 791 791 791 795 799 804 812 814 815 807 805 804 804 806 812 815 818 820 822 823 823 824
801 793 757 758 759 768 784 808 779 805 791 813 791 779 775 763 763 761 766 768 774 776 778 783 789 796 803 809 815 811 810 815 809 799 799 800 802 806 811 814 816 818 820 819
779 802 766 765 758 762 774 773 818 820 835 830 814 799 806 786 783 776 778 782 781 780 782 785 789 794 802 804 805 809 810 804 807 804 802 798 793 798 799 806 808 812 814 816
774 791 792 767 779 787 790 800 795 806 814 838 847 827 776 785 781 787 786 784 785 786 788 789 790 793 799 802 804 804 805 803 799 793 787 784 790 789 794 794 799 802 807 810
786 795 818 794 766 758 771 785 795 837 832 824 829 831 783 785 784 784 787 787 786 787 788 789 790 793 795 795 796 798 798 795 792 784 779 781 781 784 786 787 790 794 796 801
793 813 831 807 787 782 784 780 781 796 808 827 844 832 783 784 790 794 797 796 792 790 789 788 789 791 792 792 792 793 794 795 791 784 781 779 780 781 779 779 782 784 788 791
786 806 817 839 815 802 807 795 790 801 831 826 821 806 804 799 803 802 802 802 801 799 798 797 796 794 793 791 790 790 790 792 791 788 783 779 776 775 776 773 773 775 776 781
794 816 807 806 799 799 802 800 797 805 805 820 814 821 824 816 813 809 806 805 804 803 800 799 799 797 794 793 790 788 787 787 788 787 784 780 776 774 773 772 771 767 768 770
791 817 804 813 800 798 802 793 790 793 795 799 804 822 811 813 810 811 810 808 808 806 803 800 798 797 795 792 789 787 783 782 783 783 782 778 774 771 767 764 762 762 756 756
802 815 825 830 811 810 822 798 793 793 800 809 830 823 811 813 812 814 813 812 813 811 806 802 799 796 794 791 788 785 781 778 776 775 774 774 770 765 760 755 750 747 752 751
806 811 819 836 824 845 809 789 789 795 803 808 813 815 815 817 815 813 812 814 814 812 808 804 799 795 791 788 785 781 779 777 774 771 768 766 764 759 754 749 741 742 741 721
795 810 828 837 837 817 803 806 808 812 824 814 817 815 814 813 812 815 813 814 813 809 806 801 797 791 786 781 779 776 774 773 771 768 765 762 759 755 750 743 737 733 739 738
796 805 826 832 840 841 821 804 799 801 835 818 819 824 825 823 832 826 820 817 811 806 802 796 791 785 782 779 775 771 771 769 766 763 760 757 754 751 745 740 733 728 725 725
815 817 829 831 834 823 810 803 796 829 843 824 824 827 830 834 835 828 824 819 814 807 802 795 789 785 781 776 773 770 768 766 764 759 755 751 746 743 738 732 728 724 723 723
811 822 825 825 828 835 802 802 818 824 822 824 826 829 832 834 832 829 825 822 816 809 803 798 789 784 780 775 773 769 765 762 758 753 748 743 739 735 730 725 719 717 718 719
816 809 823 822 827 813 811 814 814 815 822 826 829 833 834 833 833 831 827 824 818 813 807 800 792 785 781 776 772 768 762 757 751 746 741 736 731 725 721 716 711 710 709 711
794 793 813 812 813 812 811 815 815 816 821 826 830 833 835 837 836 835 831 826 821 815 807 800 793 785 781 776 771 766 758 752 744 737 731 728 723 717 712 710 705 703 703 705
799 798 804 809 816 814 816 817 813 819 821 826 828 830 834 836 835 831 830 824 819 813 806 801 795 787 781 775 768 762 753 744 735 729 722 718 714 711 708 705 703 701 701 702
796 804 814 817 813 815 811 809 811 818 824 825 824 829 831 831 829 824 822 822 816 809 804 799 794 787 778 772 767 759 748 740 730 720 713 707 705 705 704 704 701 701 703 706
Wind_Speed
8 4 8 9 7 2 4 6 10 7 8 9 11 12 19 17 16 18 16 15 13 14 13 26 28 27 30 34 34 27 33 31 27 25 22 17 14 16 16 13 21 19 15 19
6 7 10 7 7 7 8 8 6 5 8 6 6 5 19 20 16 20 19 17 15 12 15 20 26 28 29 35 32 30 26 34 32 29 26 20 18 16 20 16 19 24 19 14
7 5 6 7 7 7 7 5 7 4 6 7 4 6 10 16 11 13 17 18 16 15 16 15 19 26 29 33 34 30 28 32 30 28 27 23 20 21 22 18 25 25 21 19
8 5 6 5 4 4 5 8 10 9 5 3 3 5 6 16 16 16 14 14 15 14 17 18 20 24 27 32 36 34 31 29 30 27 26 28 25 22 25 19 30 27 22 22
3 9 3 0 5 7 2 9 7 6 7 7 13 2 7 21 7 6 9 15 7 12 18 20 3 23 26 33 35 37 34 31 32 29 27 28 26 24 24 19 25 30 26 23
2 4 5 3 6 4 7 5 8 5 2 3 12 6 7 14 9 6 12 9 10 8 13 12 23 13 7 28 32 37 39 37 34 31 33 25 27 25 24 25 25 27 32 29
5 6 6 3 3 5 5 3 3 3 0 6 7 2 2 16 19 17 14 15 11 14 12 12 13 8 9 14 22 31 38 36 39 37 33 36 28 28 26 23 29 23 32 34
3 4 8 3 5 3 5 2 4 3 3 6 8 6 1 18 17 18 17 15 13 16 19 13 8 19 20 12 16 11 23 33 38 40 39 39 37 29 31 33 26 21 32 34
6 4 6 10 5 4 7 4 6 1 6 4 2 6 7 9 14 17 17 15 12 11 11 13 19 21 25 26 14 5 12 33 32 41 39 40 40 38 34 30 29 29 27 34
5 3 7 6 1 4 3 3 5 5 4 4 4 4 7 7 12 15 14 12 10 10 10 9 14 21 17 16 17 19 16 12 17 25 30 33 43 43 43 36 29 29 29 25
5 3 5 3 5 4 1 3 3 2 4 2 3 4 8 10 13 13 11 10 10 9 9 8 12 20 20 21 21 19 19 19 24 24 43 40 37 42 43 42 41 33 35 27
7 2 3 5 4 7 6 3 3 4 7 2 3 2 7 11 11 10 9 8 7 8 8 8 15 19 20 22 23 21 22 26 31 31 20 37 38 37 39 40 41 42 37 36
5 4 4 7 4 10 4 4 2 2 1 3 4 4 9 10 17 17 18 11 9 9 9 8 11 12 15 19 21 24 22 26 27 33 29 22 35 36 37 39 41 42 40 34
4 2 1 3 2 4 6 9 8 4 2 3 4 1 17 14 16 15 13 10 10 9 9 9 7 9 13 14 17 20 23 23 25 29 31 27 22 38 38 39 39 40 42 40
2 1 5 8 8 7 7 8 9 6 6 2 7 8 8 9 9 8 8 11 13 12 12 8 7 7 10 11 16 19 21 25 24 26 26 27 26 20 34 40 41 40 40 42
3 2 3 5 8 9 7 7 8 8 6 6 7 8 8 9 10 9 9 8 6 8 7 8 6 12 16 12 14 16 21 26 29 26 23 26 28 26 26 27 42 43 41 42
3 3 5 4 8 9 6 5 6 6 13 7 8 4 10 13 13 10 7 10 13 15 11 8 8 12 16 20 17 17 19 22 30 31 29 25 28 30 30 31 33 44 41 42
4 1 2 4 5 3 4 14 12 7 14 13 11 10 8 8 8 8 8 12 13 14 13 10 15 19 17 21 22 14 15 21 29 31 31 30 28 30 31 32 34 34 40 43
2 2 2 1 3 7 5 10 10 5 8 15 12 14 13 13 10 7 16 19 18 16 19 19 24 27 29 23 24 12 14 16 22 28 29 30 28 30 30 31 33 35 31 37
4 5 4 3 2 2 4 8 7 5 2 7 8 10 12 11 7 6 16 15 19 25 25 27 27 26 21 23 14 13 15 17 19 24 29 33 35 34 32 30 32 32 32 31
3 1 5 5 5 3 4 7 4 1 1 8 9 8 8 5 4 10 14 17 24 24 26 29 27 22 18 14 18 20 20 19 23 26 30 34 36 34 33 34 32 30 29 26
4 4 1 3 3 0 6 4 2 4 7 7 7 9 7 7 9 12 13 13 20 22 26 26 21 20 21 22 24 23 23 25 31 31 30 35 37 35 33 32 32 29 24 21
1 5 4 4 2 2 9 8 7 9 8 8 8 8 6 9 12 13 15 14 20 21 22 23 19 18 21 22 23 24 28 33 31 29 32 36 36 35 34 28 28 24 24 23
2 4 3 2 3 4 6 5 9 10 10 10 9 7 9 8 9 12 11 13 17 19 19 22 22 17 19 25 26 25 30 30 29 31 35 33 30 32 22 19 18 21 20 18
2 5 2 2 5 8 14 5 9 12 11 9 10 10 5 4 3 3 5 9 13 16 19 22 23 21 20 24 27 28 33 34 32 28 30 30 29 19 10 9 4 6 9 16
2 2 2 3 6 6 7 7 12 12 10 7 9 6 5 6 5 5 5 9 12 16 14 15 20 26 29 26 27 35 38 31 29 21 14 6 13 9 9 6 16 15 16 15
Wind_Direction
282 248 252 300 109 101 336 293 139 175 180 183 196 203 174 183 179 174 180 177 179 173 164 165 168 174 170 164 168 169 175 179 176 180 187 203 206 209 202 202 207 196 188 201
285 249 275 93 53 17 332 320 151 147 168 174 198 214 176 185 194 181 179 176 178 171 160 164 167 176 168 169 168 176 175 180 180 184 190 198 200 214 210 219 210 194 189 204
237 292 48 39 15 6 319 4 6 135 204 224 193 269 170 185 183 182 184 175 176 172 159 165 165 175 172 173 179 176 183 184 185 188 191 201 207 217 215 233 198 190 194 205
250 111 47 13 340 320 44 10 12 1 36 284 51 270 197 174 187 204 176 168 178 168 160 165 168 177 173 175 182 186 188 189 192 190 195 206 218 216 209 224 197 191 200 205
341 39 114 79 14 30 90 25 349 328 330 353 299 30 284 161 177 198 46 78 24 93 57 24 314 183 176 176 180 188 190 195 198 199 206 213 222 228 226 225 200 199 208 217
88 86 10 58 6 19 334 338 309 274 212 300 248 160 291 172 144 106 112 80 66 80 70 346 341 339 219 181 181 186 191 197 204 208 209 217 224 218 228 232 229 214 212 212
223 157 96 50 289 264 225 332 309 342 334 222 228 11 230 102 118 132 134 136 166 135 121 128 245 190 257 359 205 193 193 196 201 203 209 217 223 224 222 227 232 225 209 210
218 88 135 184 85 10 315 59 136 304 352 267 343 122 65 118 116 114 123 137 144 150 167 189 192 185 190 216 302 223 213 204 201 203 206 208 220 223 229 233 234 239 214 215
25 82 91 62 27 55 325 62 255 311 284 34 81 43 46 87 93 88 83 75 67 68 68 87 155 157 178 185 198 40 331 243 220 207 210 210 213 214 222 234 243 242 226 220
319 13 136 134 196 222 183 286 16 352 10 338 25 141 175 115 88 85 77 66 51 51 58 62 74 70 80 65 77 51 18 7 230 237 227 217 213 217 216 223 228 237 242 236
343 35 311 113 203 184 318 348 356 158 138 144 33 312 101 104 102 92 85 79 68 59 60 51 58 60 56 47 38 33 20 5 334 327 231 216 218 217 219 219 224 226 231 240
355 1 340 274 341 94 92 65 75 99 308 348 137 342 77 58 61 80 81 90 85 80 71 65 55 58 42 29 25 25 7 4 354 345 263 224 217 214 216 220 222 224 227 235
343 346 343 308 18 26 25 89 16 335 115 281 111 231 71 56 60 53 45 33 34 48 48 50 67 53 37 27 20 3 10 359 351 351 347 253 223 218 216 218 221 222 224 231
66 293 269 218 309 1 352 343 352 28 48 298 240 257 34 44 60 50 43 35 31 25 26 11 20 51 36 18 5 359 351 352 349 342 341 336 258 227 224 221 217 220 222 222
76 290 345 337 343 334 313 307 310 315 287 279 286 49 57 52 56 52 53 37 21 1 353 13 31 19 18 10 351 344 344 341 341 338 329 328 318 303 251 243 231 221 221 223
202 263 320 320 299 300 322 311 281 233 263 278 356 58 33 55 46 36 30 38 18 331 342 1 8 359 348 334 332 330 334 334 333 330 320 317 319 312 296 288 241 238 219 223
64 50 21 309 333 339 327 283 26 49 70 63 55 31 23 27 20 11 3 16 8 4 352 344 328 326 333 333 319 322 324 326 325 324 315 314 310 311 303 295 258 234 231 228
17 18 169 258 298 268 294 28 47 48 48 48 49 36 34 22 359 354 22 9 358 347 334 319 311 306 307 313 312 314 317 322 323 319 312 309 311 305 302 302 290 254 237 236
355 45 347 80 283 286 41 25 37 49 51 32 27 20 13 4 349 338 8 351 333 323 313 308 314 321 314 293 293 289 311 316 317 316 311 314 311 309 296 298 291 286 254 247
215 122 114 342 346 291 52 41 28 20 126 9 26 26 13 6 342 328 347 341 328 318 318 315 306 296 309 318 315 334 321 310 306 307 306 304 305 301 300 294 285 277 277 262
210 187 194 230 230 124 17 349 337 259 158 44 40 30 11 10 329 327 342 338 337 344 346 335 317 320 338 357 343 331 329 318 312 308 303 299 300 297 286 290 283 263 262 254
173 153 256 349 316 108 350 342 81 154 68 63 47 32 29 7 343 336 338 338 336 335 337 338 350 348 349 351 343 332 315 312 308 305 297 293 294 291 287 281 281 253 242 239
63 156 167 131 159 134 68 76 79 86 82 55 65 49 26 6 357 350 342 341 338 339 332 335 339 338 339 344 340 322 313 311 308 302 294 290 289 286 286 273 272 246 230 223
62 17 127 95 98 56 81 93 98 92 94 84 85 70 48 15 0 4 353 349 347 343 343 337 333 343 341 338 332 320 314 310 303 295 287 282 281 285 264 272 265 259 239 209
263 132 257 118 14 38 16 313 132 103 95 106 96 85 81 69 37 22 325 335 342 342 341 346 340 340 336 337 329 329 331 324 302 286 277 270 268 271 243 209 178 167 160 161
109 118 97 240 195 167 219 171 120 122 133 138 123 132 156 174 212 199 243 290 315 325 352 1 348 349 343 334 323 348 340 340 331 300 261 272 239 226 190 160 125 126 128 134